Big Piney River (Missouri), Fort Leonard Wood (06930060)

StateMissouriLatestLow (477 cfs)
RiverBig Piney RiverRatingObservedEstimated
Updated2026-05-10 15:00 (38 minutes ago)Flood - The river is flooding. Obstacles can be treacherous or deadly. The river should be avoided at this stage for casual trips and definitely for the inexperienced. Trips should be attempted only with protective gear and equipment.Flood(none)3182
Discharge477 cfs (median: 716 cfs)High - The river is high and potentially dangerous, especially for the young and / or inexperienced. Normal stream obstacles are sometimes difficult to navigate. Extended distances can be attempted, but canoe travel may not be advisable.High(none)1610
Height2.66 feetGood - Conditions are ideal for a canoe or kayak. Boats typically will drag on fewer than one-quarter of riffles, if at all, and portages are unnecessary or rare. Normal float lengths can be attempted without a problem.Good(none)767
TrendSteady (falling over 24 hours)Low - River is low but can still be floated. Some riffles are okay but most come with significant dragging and might need a portage. Float lengths should be reduced to accommodate low flow, dragging, and portages.Low(none)448
USGSExternal icon USGS Site (External icon Duck Duck Go Maps)Poor - River is too low to float comfortably. Most or all riffles will drag or must be portaged and some obstacles (such as slick shelf rock) cause undue problems. Avoid the river at this stage for casual paddling trips.Poor(none)225

Trending Data

Plot Image

Trips for Big Piney River (Missouri), Fort Leonard Wood (06930060)

DateStartEndDistanceConditionDischargeHeightFishingDetails

A total of 0 rows are displayed.

Condition Descriptions

Fishing Conditions

Fish Species

Notes

Classic Trip List

The classic River Trips application is still available for use. It is updated with the new system using a data retrofit. It is no longer maintained. The original River Trips application is no longer updated (as of 1 Dec 2016) but can be checked for errors or for the condition of the data before it was converted to the new system.

Gauge Data Table

ObservationHeightDischargeMaximum
Discharge
Minimum
Discharge
Mean
Discharge
P05P10P20P25P50
(Median)
P75P80P90P95
2026-05-10 15:00 2.66 477 6390 (2002) 166 (2000) 1300 167 234 372 519 716 1930 2000 2770 5200
2026-05-10 14:00 2.66 477 6390 (2002) 166 (2000) 1300 167 234 372 519 716 1930 2000 2770 5200
2026-05-10 13:00 2.66 477 6390 (2002) 166 (2000) 1300 167 234 372 519 716 1930 2000 2770 5200
2026-05-10 12:00 2.67 481 6390 (2002) 166 (2000) 1300 167 234 372 519 716 1930 2000 2770 5200
2026-05-10 11:00 2.66 477 6390 (2002) 166 (2000) 1300 167 234 372 519 716 1930 2000 2770 5200
2026-05-10 10:00 2.67 481 6390 (2002) 166 (2000) 1300 167 234 372 519 716 1930 2000 2770 5200
2026-05-10 09:00 2.68 485 6390 (2002) 166 (2000) 1300 167 234 372 519 716 1930 2000 2770 5200
2026-05-10 08:00 2.68 485 6390 (2002) 166 (2000) 1300 167 234 372 519 716 1930 2000 2770 5200
2026-05-10 07:00 2.69 490 6390 (2002) 166 (2000) 1300 167 234 372 519 716 1930 2000 2770 5200
2026-05-10 06:00 2.69 490 6390 (2002) 166 (2000) 1300 167 234 372 519 716 1930 2000 2770 5200
2026-05-10 05:00 2.70 494 6390 (2002) 166 (2000) 1300 167 234 372 519 716 1930 2000 2770 5200
2026-05-10 04:00 2.69 490 6390 (2002) 166 (2000) 1300 167 234 372 519 716 1930 2000 2770 5200
2026-05-10 03:00 2.70 494 6390 (2002) 166 (2000) 1300 167 234 372 519 716 1930 2000 2770 5200
2026-05-10 02:00 2.69 490 6390 (2002) 166 (2000) 1300 167 234 372 519 716 1930 2000 2770 5200
2026-05-10 01:00 2.70 494 6390 (2002) 166 (2000) 1300 167 234 372 519 716 1930 2000 2770 5200
2026-05-10 00:00 2.70 494 6390 (2002) 166 (2000) 1300 167 234 372 519 716 1930 2000 2770 5200
2026-05-09 23:00 2.70 494 6390 (2002) 166 (2000) 1300 167 234 372 519 716 1930 2000 2770 5200
2026-05-09 22:00 2.72 502 32300 (2002) 168 (2000) 2340 168 238 349 389 797 1960 2270 3020 22400
2026-05-09 21:00 2.71 498 32300 (2002) 168 (2000) 2340 168 238 349 389 797 1960 2270 3020 22400
2026-05-09 20:00 2.72 502 32300 (2002) 168 (2000) 2340 168 238 349 389 797 1960 2270 3020 22400
2026-05-09 19:00 2.72 502 32300 (2002) 168 (2000) 2340 168 238 349 389 797 1960 2270 3020 22400
2026-05-09 18:00 2.72 502 32300 (2002) 168 (2000) 2340 168 238 349 389 797 1960 2270 3020 22400
2026-05-09 17:00 2.72 502 32300 (2002) 168 (2000) 2340 168 238 349 389 797 1960 2270 3020 22400
2026-05-09 16:00 2.72 502 32300 (2002) 168 (2000) 2340 168 238 349 389 797 1960 2270 3020 22400
2026-05-09 15:00 2.73 507 32300 (2002) 168 (2000) 2340 168 238 349 389 797 1960 2270 3020 22400
2026-05-09 14:00 2.75 516 32300 (2002) 168 (2000) 2340 168 238 349 389 797 1960 2270 3020 22400
2026-05-09 13:00 2.73 507 32300 (2002) 168 (2000) 2340 168 238 349 389 797 1960 2270 3020 22400
2026-05-09 12:00 2.75 516 32300 (2002) 168 (2000) 2340 168 238 349 389 797 1960 2270 3020 22400
2026-05-09 11:00 2.75 516 32300 (2002) 168 (2000) 2340 168 238 349 389 797 1960 2270 3020 22400
2026-05-09 10:00 2.76 520 32300 (2002) 168 (2000) 2340 168 238 349 389 797 1960 2270 3020 22400
2026-05-09 09:00 2.75 516 32300 (2002) 168 (2000) 2340 168 238 349 389 797 1960 2270 3020 22400
2026-05-09 08:00 2.76 520 32300 (2002) 168 (2000) 2340 168 238 349 389 797 1960 2270 3020 22400
2026-05-09 07:00 2.75 516 32300 (2002) 168 (2000) 2340 168 238 349 389 797 1960 2270 3020 22400
2026-05-09 06:00 2.75 516 32300 (2002) 168 (2000) 2340 168 238 349 389 797 1960 2270 3020 22400
2026-05-09 05:00 2.76 520 32300 (2002) 168 (2000) 2340 168 238 349 389 797 1960 2270 3020 22400
2026-05-09 04:00 2.76 520 32300 (2002) 168 (2000) 2340 168 238 349 389 797 1960 2270 3020 22400
2026-05-09 03:00 2.75 516 32300 (2002) 168 (2000) 2340 168 238 349 389 797 1960 2270 3020 22400
2026-05-09 02:00 2.77 524 32300 (2002) 168 (2000) 2340 168 238 349 389 797 1960 2270 3020 22400
2026-05-09 01:00 2.77 524 32300 (2002) 168 (2000) 2340 168 238 349 389 797 1960 2270 3020 22400
2026-05-09 00:00 2.77 524 32300 (2002) 168 (2000) 2340 168 238 349 389 797 1960 2270 3020 22400
2026-05-08 23:00 2.78 529 32300 (2002) 168 (2000) 2340 168 238 349 389 797 1960 2270 3020 22400
2026-05-08 22:00 2.77 524 7090 (2002) 171 (2000) 1500 173 245 321 394 908 1980 2620 3770 6250
2026-05-08 21:00 2.75 516 7090 (2002) 171 (2000) 1500 173 245 321 394 908 1980 2620 3770 6250
2026-05-08 20:00 2.75 516 7090 (2002) 171 (2000) 1500 173 245 321 394 908 1980 2620 3770 6250
2026-05-08 19:00 2.74 511 7090 (2002) 171 (2000) 1500 173 245 321 394 908 1980 2620 3770 6250
2026-05-08 18:00 2.75 516 7090 (2002) 171 (2000) 1500 173 245 321 394 908 1980 2620 3770 6250
2026-05-08 17:00 2.76 520 7090 (2002) 171 (2000) 1500 173 245 321 394 908 1980 2620 3770 6250
2026-05-08 16:00 2.76 520 7090 (2002) 171 (2000) 1500 173 245 321 394 908 1980 2620 3770 6250
2026-05-08 15:00 2.75 516 7090 (2002) 171 (2000) 1500 173 245 321 394 908 1980 2620 3770 6250
2026-05-08 14:00 2.77 524 7090 (2002) 171 (2000) 1500 173 245 321 394 908 1980 2620 3770 6250
2026-05-08 13:00 2.77 524 7090 (2002) 171 (2000) 1500 173 245 321 394 908 1980 2620 3770 6250
2026-05-08 12:00 2.78 529 7090 (2002) 171 (2000) 1500 173 245 321 394 908 1980 2620 3770 6250
2026-05-08 11:00 2.78 529 7090 (2002) 171 (2000) 1500 173 245 321 394 908 1980 2620 3770 6250
2026-05-08 10:00 2.78 529 7090 (2002) 171 (2000) 1500 173 245 321 394 908 1980 2620 3770 6250
2026-05-08 09:00 2.78 529 7090 (2002) 171 (2000) 1500 173 245 321 394 908 1980 2620 3770 6250
2026-05-08 08:00 2.81 543 7090 (2002) 171 (2000) 1500 173 245 321 394 908 1980 2620 3770 6250
2026-05-08 07:00 2.80 538 7090 (2002) 171 (2000) 1500 173 245 321 394 908 1980 2620 3770 6250
2026-05-08 06:00 2.80 538 7090 (2002) 171 (2000) 1500 173 245 321 394 908 1980 2620 3770 6250
2026-05-08 05:00 2.80 538 7090 (2002) 171 (2000) 1500 173 245 321 394 908 1980 2620 3770 6250
2026-05-08 04:00 2.80 538 7090 (2002) 171 (2000) 1500 173 245 321 394 908 1980 2620 3770 6250
2026-05-08 03:00 2.81 543 7090 (2002) 171 (2000) 1500 173 245 321 394 908 1980 2620 3770 6250
2026-05-08 02:00 2.81 543 7090 (2002) 171 (2000) 1500 173 245 321 394 908 1980 2620 3770 6250
2026-05-08 01:00 2.81 543 7090 (2002) 171 (2000) 1500 173 245 321 394 908 1980 2620 3770 6250
2026-05-08 00:00 2.82 547 7090 (2002) 171 (2000) 1500 173 245 321 394 908 1980 2620 3770 6250
2026-05-07 23:00 2.82 547 7090 (2002) 171 (2000) 1500 173 245 321 394 908 1980 2620 3770 6250
2026-05-07 22:00 2.83 552 6320 (2022) 176 (2000) 1250 181 244 332 419 849 1820 1960 2660 5380
2026-05-07 21:00 2.84 556 6320 (2022) 176 (2000) 1250 181 244 332 419 849 1820 1960 2660 5380
2026-05-07 20:00 2.84 556 6320 (2022) 176 (2000) 1250 181 244 332 419 849 1820 1960 2660 5380
2026-05-07 19:00 2.84 556 6320 (2022) 176 (2000) 1250 181 244 332 419 849 1820 1960 2660 5380
2026-05-07 18:00 2.84 556 6320 (2022) 176 (2000) 1250 181 244 332 419 849 1820 1960 2660 5380
2026-05-07 17:00 2.87 571 6320 (2022) 176 (2000) 1250 181 244 332 419 849 1820 1960 2660 5380
2026-05-07 16:00 2.86 566 6320 (2022) 176 (2000) 1250 181 244 332 419 849 1820 1960 2660 5380
2026-05-07 15:00 2.88 575 6320 (2022) 176 (2000) 1250 181 244 332 419 849 1820 1960 2660 5380
2026-05-07 14:00 2.88 575 6320 (2022) 176 (2000) 1250 181 244 332 419 849 1820 1960 2660 5380
2026-05-07 13:00 2.88 575 6320 (2022) 176 (2000) 1250 181 244 332 419 849 1820 1960 2660 5380
2026-05-07 12:00 2.88 575 6320 (2022) 176 (2000) 1250 181 244 332 419 849 1820 1960 2660 5380
2026-05-07 11:00 2.88 575 6320 (2022) 176 (2000) 1250 181 244 332 419 849 1820 1960 2660 5380
2026-05-07 10:00 2.89 580 6320 (2022) 176 (2000) 1250 181 244 332 419 849 1820 1960 2660 5380
2026-05-07 09:00 2.88 575 6320 (2022) 176 (2000) 1250 181 244 332 419 849 1820 1960 2660 5380
2026-05-07 08:00 2.89 580 6320 (2022) 176 (2000) 1250 181 244 332 419 849 1820 1960 2660 5380
2026-05-07 07:00 2.89 580 6320 (2022) 176 (2000) 1250 181 244 332 419 849 1820 1960 2660 5380
2026-05-07 06:00 2.91 590 6320 (2022) 176 (2000) 1250 181 244 332 419 849 1820 1960 2660 5380
2026-05-07 05:00 2.91 590 6320 (2022) 176 (2000) 1250 181 244 332 419 849 1820 1960 2660 5380
2026-05-07 04:00 2.90 585 6320 (2022) 176 (2000) 1250 181 244 332 419 849 1820 1960 2660 5380
2026-05-07 03:00 2.92 595 6320 (2022) 176 (2000) 1250 181 244 332 419 849 1820 1960 2660 5380
2026-05-07 02:00 2.91 590 6320 (2022) 176 (2000) 1250 181 244 332 419 849 1820 1960 2660 5380
2026-05-07 01:00 2.92 595 6320 (2022) 176 (2000) 1250 181 244 332 419 849 1820 1960 2660 5380
2026-05-07 00:00 2.93 600 6320 (2022) 176 (2000) 1250 181 244 332 419 849 1820 1960 2660 5380
2026-05-06 23:00 2.93 600 6320 (2022) 176 (2000) 1250 181 244 332 419 849 1820 1960 2660 5380

A total of 89 rows are displayed for years 2000 through 2025.